Showing default

IRIDIUM 152, 43479

Orbit data source: Space-Track

IRIDIUM 152, 43479 is a payload satellite owned by Iridium (US) in LEO that was launched on Tue, 22 May 2018 UTC via an FALCON 9 launch vehicle from the Air Force Western Test Range (AFWTR). Payload-class satellites include a variety of spacecraft equipped with specific instruments for various scientific and technological missions. These include communications satellites like Starlink; space stations such as the ISS; scientific satellites like the Hubble; Earth observation satellites from companies like Planet Labs, Umbra, and HawkEye 360; GPS; miniature CubeSats for education and research; and military/defense satellites.

Loading next visibility...
Identifier
43479, 2018-047D
Orbit
LEO
Country
Flag of USUS
Related business
Manufacturer
OATK SSG Gilbert
Mission
Operational Commercial Communications
Bus & Motor
ELITEBUS, Unknown motor
Mass
860 kg wet, 700 kg dry
Launch date (UTC)
2018-05-22 (8 years ago)
Launch vehicle
FALCON 9
Launch site
Air Force Western Test Range (AFWTR)
Object type
Payload
Rocket body
Debris
Shape & HBR
Trap Box + 2 Pan, 4.8 m
Radar Cross Section
10.154 m², Large (>1 m²)

Expand to show TLE details & history
Last TLE update: 2 days ago

TLE from 2 days ago
0 IRIDIUM 152
1 43479U 18047D   26171.31118420  .00000206  00000-0  66370-4 0  9998
2 43479  86.3956  87.0263 0002328  82.8248 277.3212 14.34218292422939
Epoch: 2026-06-20T07:28Z
TLE epoch observation values (Epoch: 2026-06-20T07:28:06.314Z)
Latitude
-0.00009°
Longitude
66.47236°
Altitude
780.504 km
Speed
7.464 km/s
True Right ascension
05h 48m 06s
True Declination
0° 00' 00"
Sunlit
Object was in daylight at epoch
Visualization orbit readout
Latitude
Unknown
Longitude
Unknown
Altitude
Unknown
Speed
Unknown
Apparent Right ascension
Unknown
Apparent Declination
Unknown
Sunlit
N/A
Visualization observer readout
Local Sidereal Time
21:41:03
Azimuth
Unknown
Elevation
Unknown
Doppler factor
Unknown
Orbital elements
Apogee altitude
776.295 km
Perigee altitude
772.965 km
Semi-major axis
7,152.767 km
Eccentricity
0.00023
Inclination
86.3956°
RAAN
87.0263°
Arg. of periapsis
82.8248°
True anomaly
277.29474°
Mean anomaly
277.3212°
Eccentric anomaly
277.30797°
Mean motion
3.58783 °/min
Orbital period
100.34 mins
BSTAR
0.00006637
Loading maneuver chart data...
Computing Atmospheric mass density...
Loading historical data...
Loading historical data...
Loading historical data...
Loading historical data...
Loading historical data...
Loading historical data...
Loading historical data...

Documentation

Showing up to 5 results
|